Flag for Canada Weather past 2 weeks in Sidney, British Columbia, Canada

Now
64 °F

Partly sunny.


Feels Like: 64 °F
Forecast: 48 / 60 °F
Wind: 8 mph from Northwest

Location: Victoria Int. Airportb. C.

Current Time: Apr 21, 2015 at 12:50:06 PM

Latest Report: Apr 21, 2015 at 12:00 PM


Visibility: 30 mi

Pressure: 29.91 "Hg

Humidity: 60%

Dew point: 50 °F

Location of SidneyLocation

Historic Weather in Sidney — Graph

°F

Sidney temperature yesterday

Maximum temperature yesterday: 66 °F (at 4:00 PM)
Minimum temperature yesterday: 43 °F (at 6:00 AM)
Average temperature yesterday: 55 °F

Past Weeks' High & Low Weather Summary

 TemperatureHumidityPressure
High66 °F (Apr 20, 4:00 PM)100% (Apr 6, 11:00 PM)30.53 "Hg (Apr 6, 11:00 PM)
Low36 °F (Apr 12, 7:00 AM)46% (Apr 20, 4:00 PM)29.72 "Hg (Apr 10, 8:00 PM)
Average49 °F74%30.09 "Hg
* Reported Apr 6 11:00 AM — Apr 21 11:00 AM, Sidney, Weather by CustomWeather, © 2015

Note: Actual official high and low records may vary slightly from our data, if they occured in-between our weather recording intervals... More about our weather records

Advertising

Sidney weather history for previous 24 hours

 ConditionsComfort  
Time TempWeatherWind HumidityBarometerVisibility
11:00 AM
Tue, Apr 21
64 °FPartly sunny.9 mph56%29.90 "Hg30 mi
10:00 AM59 °FPartly sunny.3 mph68%29.89 "Hg30 mi
9:00 AM57 °FPartly sunny.3 mph67%29.87 "Hg30 mi
8:00 AM54 °FPartly sunny.5 mph77%29.88 "Hg30 mi
7:00 AM46 °FPassing clouds.3 mph93%29.86 "Hg30 mi
6:00 AM46 °FPassing clouds.2 mph93%29.85 "Hg30 mi
5:00 AM46 °FPassing clouds.5 mph93%29.85 "Hg30 mi
4:00 AM46 °FPassing clouds.No wind93%29.85 "Hg30 mi
3:00 AM48 °FPassing clouds.No wind94%29.84 "Hg30 mi
2:00 AM48 °FPassing clouds.No wind94%29.84 "Hg30 mi
1:00 AM48 °FPassing clouds.2 mph87%29.84 "Hg30 mi
12:00 AM50 °FPassing clouds.2 mph88%29.83 "Hg30 mi
11:00 PM
Mon, Apr 20
50 °FPassing clouds.2 mph88%29.83 "Hg30 mi
10:00 PM54 °FPassing clouds.2 mph77%29.83 "Hg30 mi
9:00 PM55 °FPartly sunny.No wind72%29.83 "Hg30 mi
8:00 PM57 °FScattered clouds.2 mph67%29.83 "Hg30 mi
7:00 PM61 °FPassing clouds.6 mph59%29.83 "Hg30 mi
6:00 PM63 °FPassing clouds.8 mph52%29.85 "Hg30 mi
5:00 PM66 °FPassing clouds.6 mph49%29.86 "Hg30 mi
4:00 PM66 °FPassing clouds.7 mph46%29.88 "Hg30 mi
3:00 PM64 °FPassing clouds.5 mph52%29.90 "Hg30 mi
2:00 PM63 °FPassing clouds.8 mph52%29.92 "Hg30 mi
1:00 PM63 °FPassing clouds.8 mph56%29.93 "Hg30 mi
12:00 PM61 °FPassing clouds.7 mph63%29.95 "Hg30 mi
Weather by CustomWeather, © 2015

See weather overviewHow to use our weather pages